Погода в Лагосе

Нигерия     6°38′28″N   3°18′34″E
темп.,
°C
ветер,
м/с
пор.,
м/с
влажн.,
%
обл.,
%
осадки,
мм/ч
давл.,
гПа
погр.,
м
6 мая, чт
чт601:00+26юз3986100 0.4 1011463
04:00+25з3793100 4.1 1010334
07:00+26зюз41089100 4.1 1010585
10:00+29зюз3568100 0.0 10121147
13:00+33юз445196 0.1 10101737
16:00+32юз555441 0.0 10091419
19:00+28юз4671100 0.0 1010724
22:00+27зюз377591 0.0 1013525
7 мая, пт
пт701:00+26зюз267999 0.0 1013317
04:00+26юз2681100 0.0 1012304
07:00+25юз388872 0.0 1012355
10:00+31юз675630 0.0 10121056
13:00+35ююз554293 0.0 10111762
16:00+33ююз654899 0.0 10101757
19:00+29ююз5969100 0.0 1011843
22:00+27зюз257879 1.4 1015402
8 мая, сб
сб801:00+26ююз388393 1.5 1013526
04:00+25зсз2391100 0.5 1012151
07:00+25сз239163 0.9 1014133
10:00+29зюз356951 1.8 1015939
13:00+34юз544790 1.8 10121763
16:00+31ююз665680 0.0 10101246
19:00+28ююз586948 0.0 1012810
22:00+28ю5874100 0.3 1014803
9 мая, вс
вс901:00+27ююз387854 0.3 1013782
04:00+26зюз2485100 0.8 1012324
07:00+25зсз1290100 4.8 101495
10:00+28сз237597 1.5 1015731
13:00+30ссз5666100 3.7 10131151
16:00+32зсз2352100 0.0 10091235
19:00+29ю4766100 0.0 1010635
22:00+27ююз357597 0.0 1012448
10 мая, пн
пн1001:00+26зюз128197 0.0 1012249
04:00+26зюз128766 0.4 101190
07:00+26юз128866 0.8 101273
10:00+30ю2367100 0.4 10141040
13:00+32ю3353100 1.8 10121606
16:00+32ю435479 0.0 10101256
19:00+29ю3666100 0.0 1011541
22:00+27ююз377650 0.0 1012447